Showing default

SPEKTR R, 37755

Orbit data source: Space-Track

SPEKTR R, 37755 is a Commonwealth of Independent States-origin payload satellite in HEO that was launched on Mon, 18 Jul 2011 UTC via a ZENIT-3SLBF launch vehicle from the Tyuratam Missile And Space Complex (TTMTR). Payload-class satellites include a variety of spacecraft equipped with specific instruments for various scientific and technological missions. These include communications satellites like Starlink; space stations such as the ISS; scientific satellites like the Hubble; Earth observation satellites from companies like Planet Labs, Umbra, and HawkEye 360; GPS; miniature CubeSats for education and research; and military/defense satellites.

Loading next visibility...
Identifier
37755, 2011-037A
Orbit
HEO
Country
Flag of CISCIS
Related business
Manufacturer
Lavochkin
Mission
Non-operational Civil Astronomy
Bus & Motor
NAVIGATOR, Unknown motor
Mass
3,660 kg wet, ~3,160 kg dry
Launch date (UTC)
2011-07-18 (14 years ago)
Launch vehicle
ZENIT-3SLBF
Launch site
Tyuratam Missile And Space Complex (TTMTR)
Object type
Payload
Rocket body
Debris
Shape & HBR
Box + 2 Pan + 1 Dish, 9.0 m
Radar Cross Section
18.197 m², Large (>1 m²)

Expand to show TLE details & history
Last TLE update: 1 month ago

TLE from 1 month ago
0 SPEKTR R
1 37755U 11037A   25199.15016923 -.00002791  00000-0  00000+0 0  9991
2 37755  81.9227 323.0945 5728320 336.4653 352.1205  0.09925063  5648
Epoch: 2025-07-18T03:36Z
TLE epoch observation values (Epoch: 2025-07-18T03:36:14.621Z)
Latitude
-48.9709°
Longitude
-36.10199°
Altitude
79,165.268 km
Speed
2.701 km/s
True Right ascension
20h 56m 39s
True Declination
-48° 57' 24"
Sunlit
Object was in daylight at epoch
Visualization orbit readout
Latitude
Unknown
Longitude
Unknown
Altitude
Unknown
Speed
Unknown
Apparent Right ascension
Unknown
Apparent Declination
Unknown
Sunlit
N/A
Visualization observer readout
Local Sidereal Time
02:48:48
Azimuth
Unknown
Elevation
Unknown
Doppler factor
Unknown
Orbital elements
Apogee altitude
303,550.597 km
Perigee altitude
77,795.912 km
Semi-major axis
197,051.391 km
Eccentricity
0.57283
Inclination
81.9227°
RAAN
323.0945°
Arg. of periapsis
336.4653°
True anomaly
326.10439°
Mean anomaly
352.1205°
Eccentric anomaly
341.95233°
Mean motion
0.02481 °/min
Orbital period
14,508.7 mins
BSTAR
0
Loading maneuver chart data...
Computing Atmospheric mass density...
Loading historical data...
Loading historical data...
Loading historical data...
Loading historical data...
Loading historical data...
Loading historical data...
Loading historical data...

Documentation

Showing up to 5 results
|